sat.trackr.live / text

‹ back to catalog

STARLINK-11398 [DTC]

NORAD 61882 · 2024-204J

PAYLOAD ACTIVE UNKNOWN

§ Identity

Operator
Country
US
Launch date
2024-11-09
Launch site
AFWTR
Launch vehicle
Mass (kg)
RCS (m²)

Purposes: comms

External: N2YO · Heavens-Above · Gunter

§ Orbital elements

Epoch: 2026-09-21T20:15:06.188832Z

Period
91.74 min
Inclination
53.1586°
Eccentricity
0.0000690
Mean motion
15.69723187 rev/d
Perigee alt
359.2 km
Apogee alt
360.2 km
Semi-major
6,737.8 km
B*
-2.7482e-5
RAAN
109.2363°
Arg perigee
77.4297°
Mean anomaly
282.6798°
Rev number
10,772

§ Raw data

STARLINK-11398 [DTC]1 61882U 24204J   26264.84382163 -.00003918  00000+0 -27482-4 0  99912 61882  53.1586 109.2363 0000690  77.4297 282.6798 15.69723187107728

JSON: /api/v1/satellites/61882 · /tle

For live sub-satellite position, see the globe view (requires WebGL).

§ Visibility from observer

Set your observer location to see the next 7 days of passes ≥ 10°. The values pass through the URL so the page stays shareable.

No JS? Fill the form by hand. The geolocation button needs JavaScript.